Home   Weather   Douglas   Past weeks

Flag for Isle of Man Past Weather in Douglas, Isle of Man — Yesterday and Last 2 Weeks

55 °F

Passing clouds.

Feels Like: 52 °F
Forecast: 55 / 58 °F
Wind: 12 mph from Southwest

Location: Isle Of Man / Ronaldsway Airport

Current Time: Oct 26, 2016 at 3:12:58 AM

Latest Report: Oct 26, 2016 at 1:50 AM

Visibility: N/A

Pressure: 30.15 "Hg

Humidity: 82%

Dew Point: 50 °F

Location of DouglasLocation

Past Weather in Douglas — Graph


Douglas Temperature Yesterday

Maximum temperature yesterday: 55 °F (at 2:20 PM)
Minimum temperature yesterday: 46 °F (at 2:50 AM)
Average temperature yesterday: 53 °F

High & Low Weather Summary for the Past Weeks

High59 °F (Oct 11, 3:20 PM)94% (Oct 12, 6:50 PM)30.33 "Hg (Oct 12, 6:50 PM)
Low43 °F (Oct 24, 5:20 AM)55% (Oct 20, 11:20 AM)29.59 "Hg (Oct 15, 6:50 AM)
Average53 °F77%30.02 "Hg
* Reported Oct 11 1:50 AM — Oct 26 1:50 AM, Douglas, Weather by CustomWeather, © 2016

Note: Actual official high and low records may vary slightly from our data, if they occured in-between our weather recording intervals... More about our weather records


Douglas Weather History for the Previous 24 Hours

Scroll right to see more
Time TempWeatherWind HumidityBarometerVisibility
1:50 AM
Wed, Oct 26
55 °FPassing clouds.12 mph82%30.15 "HgN/A
12:50 AM55 °FPassing clouds.14 mph88%30.15 "HgN/A
11:50 PM
Tue, Oct 25
55 °FPartly cloudy.14 mph94%30.15 "HgN/A
10:50 PM55 °FPartly cloudy.14 mph94%30.15 "HgN/A
9:50 PM55 °FPassing clouds.13 mph94%30.15 "HgN/A
9:20 PM55 °FPartly cloudy.13 mph94%30.18 "HgN/A
8:50 PM55 °FPassing clouds.14 mph88%30.18 "HgN/A
8:20 PM55 °FPartly cloudy.14 mph88%30.18 "HgN/A
7:50 PM55 °FPartly cloudy.13 mph82%30.15 "HgN/A
7:20 PM54 °FPassing clouds.10 mph88%30.15 "HgN/A
6:50 PM54 °FPassing clouds.6 mph82%30.15 "HgN/A
6:20 PM54 °FPassing clouds.6 mph82%30.15 "HgN/A
5:50 PM54 °FBroken clouds.8 mph82%30.15 "HgN/A
5:20 PM54 °FPartly sunny.6 mph82%30.15 "HgN/A
4:50 PM54 °FPartly sunny.8 mph82%30.15 "HgN/A
4:20 PM55 °FBroken clouds.8 mph77%30.15 "HgN/A
3:50 PM55 °FScattered clouds.9 mph77%30.15 "HgN/A
3:20 PM54 °FPassing clouds.8 mph77%30.15 "HgN/A
2:50 PM55 °FPassing clouds.8 mph77%30.15 "HgN/A
2:20 PM55 °FPassing clouds.12 mph77%30.15 "HgN/A
1:50 PM54 °FScattered clouds.13 mph82%30.15 "HgN/A
1:20 PM54 °FScattered clouds.14 mph82%30.18 "HgN/A
12:50 PM54 °FPartly sunny.15 mph82%30.18 "HgN/A
12:20 PM54 °FScattered clouds.16 mph82%30.18 "HgN/A
11:50 AM54 °FPartly sunny.15 mph82%30.18 "HgN/A
11:20 AM54 °FPartly sunny.15 mph82%30.18 "HgN/A
10:50 AM52 °FScattered clouds.16 mph88%30.18 "HgN/A
10:20 AM52 °FScattered clouds.15 mph82%30.15 "HgN/A
9:50 AM52 °FScattered clouds.14 mph82%30.15 "HgN/A
9:20 AM52 °FScattered clouds.16 mph88%30.15 "HgN/A
8:50 AM52 °FScattered clouds.14 mph82%30.15 "HgN/A
8:20 AM52 °FPartly sunny.14 mph82%30.15 "HgN/A
7:50 AM50 °FPassing clouds.13 mph88%30.15 "HgN/A
7:20 AM50 °FPassing clouds.13 mph88%30.15 "HgN/A
6:50 AM50 °FPassing clouds.12 mph88%30.12 "HgN/A
6:20 AM50 °FPassing clouds.12 mph88%30.12 "HgN/A
5:50 AM50 °FPassing clouds.9 mph88%30.12 "HgN/A
5:20 AM50 °FPassing clouds.12 mph88%30.12 "HgN/A
4:50 AM50 °FPassing clouds.12 mph88%30.12 "HgN/A
3:50 AM48 °FPassing clouds.6 mph87%30.12 "HgN/A
Weather by CustomWeather, © 2016

See weather overviewHow to use our weather pages